Location: Unspecified
(41.9031°N, 12.4386°E)
Time: 05:33:37
(UTC+02:00)

ISS - Pass Details

Date: 27 March 2020
Orbit: 417 x 423 km, 51.6° (Epoch: 29 March)

Event Time Altitude Azimuth Distance (km) Brightness Sun altitude
Rises 20:41:42 0° 305° (NW) 2,361 1.5 -24.1°
Reaches altitude 10° 20:44:17 10° 326° (NW) 1,497 -0.1 -24.5°
Enters shadow 20:46:09 17° 359° (N) 1,129 -1.3 -24.8°
